Location: Barcelona
(41.3830°N, 2.1830°E)
Time: 15:33:36
(UTC+02:00)

ISS - Pass Details

Date: 09 March 2021
Orbit: 418 x 422 km, 51.6° (Epoch: 16 April)

Event Time Altitude Azimuth Distance (km) Brightness Sun altitude
Exits shadow 04:57:43 20° 26° (NNE) 1,033 -1.4 -25.9°
Drops below altitude 10° 04:59:58 10° 68° (ENE) 1,497 0.1 -25.5°
Sets 05:02:26 0° 86° (E) 2,359 1.3 -25.0°
